ASA193 KLAX-PANC

Flight info

Callsign ASA193
Flight time 5h 10m
Altitude 36000
Route LADYJ4 CSTRO NURAY LMT UBG TOU PRYCE/N0454F380 BKA LAIRE JOH PTERS3
Aircraft B737/M-SDE2E3FGHIRWXY/LB1

Departure

Time 2026-05-07 08:18
Airport Los Angeles International Airport (KLAX)

Arrival

Time 2026-05-07 13:28
Airport Ted Stevens Anchorage International Airport (PANC)
Time Latitude Longitude Altitude Speed Heading
2026-05-07 07:53 33.93997 -118.40241 125 ft 0 kts 38°
2026-05-07 08:08 33.93983 -118.40254 123 ft 4 kts 38°
2026-05-07 08:08 33.93962 -118.40275 121 ft 4 kts 38°
2026-05-07 08:09 33.93945 -118.40290 121 ft 4 kts 43°
2026-05-07 08:09 33.93929 -118.40315 122 ft 4 kts 72°
2026-05-07 08:09 33.93925 -118.40347 120 ft 4 kts 88°
2026-05-07 08:09 33.93925 -118.40361 120 ft 0 kts 83°
2026-05-07 08:12 33.93926 -118.40351 121 ft 2 kts 83°
2026-05-07 08:12 33.93927 -118.40321 120 ft 5 kts 97°
2026-05-07 08:12 33.93899 -118.40293 122 ft 6 kts 160°
2026-05-07 08:12 33.93856 -118.40268 123 ft 8 kts 115°
2026-05-07 08:13 33.93858 -118.40194 125 ft 10 kts 82°
2026-05-07 08:13 33.93868 -118.40104 123 ft 12 kts 83°
2026-05-07 08:13 33.93879 -118.39997 125 ft 14 kts 83°
2026-05-07 08:13 33.93891 -118.39875 125 ft 16 kts 83°
2026-05-07 08:14 33.93906 -118.39738 125 ft 17 kts 82°
2026-05-07 08:14 33.93920 -118.39589 125 ft 19 kts 83°
2026-05-07 08:14 33.93937 -118.39428 122 ft 20 kts 83°
2026-05-07 08:14 33.93954 -118.39260 121 ft 21 kts 83°
2026-05-07 08:15 33.93973 -118.39079 124 ft 22 kts 83°
2026-05-07 08:15 33.93992 -118.38888 124 ft 24 kts 83°
2026-05-07 08:15 33.94012 -118.38691 120 ft 23 kts 83°
2026-05-07 08:15 33.94032 -118.38502 124 ft 22 kts 83°
2026-05-07 08:16 33.94050 -118.38319 124 ft 22 kts 83°
2026-05-07 08:16 33.94068 -118.38140 124 ft 21 kts 83°
2026-05-07 08:16 33.94075 -118.38025 124 ft 11 kts 110°
2026-05-07 08:16 33.94010 -118.37994 122 ft 8 kts 175°
2026-05-07 08:17 33.93985 -118.38022 124 ft 6 kts 264°
2026-05-07 08:17 33.93980 -118.38078 124 ft 12 kts 262°
2026-05-07 08:17 33.93941 -118.38446 122 ft 78 kts 263°
2026-05-07 08:17 33.93849 -118.39343 125 ft 136 kts 263°
2026-05-07 08:18 33.93716 -118.40645 247 ft 169 kts 263°
2026-05-07 08:18 33.93582 -118.42010 979 ft 163 kts 262°
2026-05-07 08:18 33.93429 -118.43428 1497 ft 170 kts 263°
2026-05-07 08:18 33.93288 -118.44873 2058 ft 181 kts 263°
2026-05-07 08:19 33.93136 -118.46492 2333 ft 208 kts 264°
2026-05-07 08:19 33.92979 -118.48334 2560 ft 232 kts 264°
2026-05-07 08:19 33.92811 -118.50334 2867 ft 253 kts 264°
2026-05-07 08:19 33.92633 -118.52495 3413 ft 264 kts 264°
2026-05-07 08:20 33.92450 -118.54706 4282 ft 265 kts 265°
2026-05-07 08:20 33.92267 -118.56911 5188 ft 266 kts 266°
2026-05-07 08:20 33.92082 -118.59151 5928 ft 273 kts 266°
2026-05-07 08:20 33.92157 -118.61443 6630 ft 277 kts 289°
2026-05-07 08:21 33.93109 -118.63436 7330 ft 278 kts 316°
2026-05-07 08:21 33.94662 -118.64823 7836 ft 281 kts 332°
2026-05-07 08:21 33.96385 -118.65942 7996 ft 283 kts 334°
2026-05-07 08:21 33.98133 -118.67045 7985 ft 284 kts 336°
2026-05-07 08:22 34.00001 -118.67683 7990 ft 277 kts 358°
2026-05-07 08:22 34.01919 -118.67654 7993 ft 276 kts
2026-05-07 08:22 34.03829 -118.67502 7999 ft 275 kts
2026-05-07 08:22 34.05742 -118.67351 7990 ft 275 kts
2026-05-07 08:23 34.07629 -118.67212 7992 ft 275 kts
2026-05-07 08:23 34.09533 -118.66878 8196 ft 280 kts 12°
2026-05-07 08:23 34.11440 -118.66399 9039 ft 280 kts 14°
2026-05-07 08:23 34.13344 -118.65913 9895 ft 280 kts 14°
2026-05-07 08:24 34.15280 -118.65426 10455 ft 292 kts 14°
2026-05-07 08:24 34.17352 -118.64917 10625 ft 316 kts 14°
2026-05-07 08:24 34.19591 -118.64380 10803 ft 339 kts 13°
2026-05-07 08:24 34.21979 -118.63812 10959 ft 360 kts 13°
2026-05-07 08:25 34.24515 -118.63343 11225 ft 377 kts
2026-05-07 08:25 34.27149 -118.63747 11784 ft 386 kts 351°
2026-05-07 08:25 34.29782 -118.64403 12453 ft 388 kts 351°
2026-05-07 08:25 34.32441 -118.65053 13089 ft 391 kts 351°
2026-05-07 08:26 34.37830 -118.66312 14310 ft 398 kts 352°
2026-05-07 08:26 34.40557 -118.66930 14925 ft 399 kts 351°
2026-05-07 08:26 34.43289 -118.67551 15572 ft 400 kts 352°
2026-05-07 08:27 34.46051 -118.68120 16095 ft 404 kts 353°
2026-05-07 08:27 34.48838 -118.68656 16668 ft 407 kts 353°
2026-05-07 08:27 34.51648 -118.69188 17254 ft 409 kts 353°
2026-05-07 08:27 34.54464 -118.69725 17810 ft 411 kts 353°
2026-05-07 08:28 34.57302 -118.70272 18334 ft 414 kts 352°
2026-05-07 08:28 34.60158 -118.70828 18776 ft 417 kts 352°
2026-05-07 08:28 34.63029 -118.71390 19208 ft 420 kts 352°
2026-05-07 08:28 34.65923 -118.71956 19657 ft 422 kts 352°
2026-05-07 08:29 34.68828 -118.72526 20136 ft 424 kts 352°
2026-05-07 08:29 34.71694 -118.73165 20588 ft 427 kts 346°
2026-05-07 08:29 34.74454 -118.74652 21017 ft 432 kts 332°
2026-05-07 08:29 34.77015 -118.76469 21497 ft 433 kts 332°
2026-05-07 08:30 34.79629 -118.78318 21902 ft 436 kts 332°
2026-05-07 08:30 34.82269 -118.80169 22311 ft 438 kts 332°
2026-05-07 08:30 34.84922 -118.82014 22737 ft 440 kts 332°
2026-05-07 08:30 34.87598 -118.83863 23130 ft 442 kts 332°
2026-05-07 08:31 34.90280 -118.85710 23531 ft 444 kts 332°
2026-05-07 08:31 34.92982 -118.87570 23887 ft 446 kts 332°
2026-05-07 08:31 34.95689 -118.89433 24202 ft 448 kts 332°
2026-05-07 08:31 34.98412 -118.91307 24510 ft 450 kts 332°
2026-05-07 08:32 35.01144 -118.93190 24813 ft 452 kts 332°
2026-05-07 08:32 35.03896 -118.95089 25108 ft 455 kts 332°
2026-05-07 08:32 35.06654 -118.96993 25412 ft 456 kts 332°
2026-05-07 08:32 35.09423 -118.98907 25711 ft 458 kts 332°
2026-05-07 08:33 35.12203 -119.00830 26002 ft 460 kts 332°
2026-05-07 08:33 35.14991 -119.02761 26261 ft 462 kts 332°
2026-05-07 08:33 35.17791 -119.04701 26527 ft 464 kts 332°
2026-05-07 08:33 35.20564 -119.06624 26784 ft 465 kts 332°
2026-05-07 08:34 35.23376 -119.08576 27121 ft 465 kts 332°
2026-05-07 08:34 35.26188 -119.10530 27530 ft 463 kts 332°
2026-05-07 08:34 35.28981 -119.12472 27950 ft 461 kts 332°
2026-05-07 08:34 35.31770 -119.14412 28348 ft 460 kts 332°
2026-05-07 08:35 35.34554 -119.16351 28727 ft 460 kts 332°
2026-05-07 08:35 35.37333 -119.18287 29135 ft 459 kts 332°
2026-05-07 08:35 35.40106 -119.20221 29577 ft 457 kts 332°
2026-05-07 08:35 35.42864 -119.22146 30024 ft 456 kts 332°
2026-05-07 08:36 35.45658 -119.23982 30400 ft 454 kts 339°
2026-05-07 08:36 35.48608 -119.25329 30770 ft 451 kts 343°
2026-05-07 08:36 35.51586 -119.26493 31164 ft 449 kts 344°
2026-05-07 08:36 35.54571 -119.27604 31542 ft 447 kts 345°
2026-05-07 08:37 35.57540 -119.28711 31928 ft 445 kts 344°
2026-05-07 08:37 35.60487 -119.29834 32406 ft 441 kts 343°
2026-05-07 08:37 35.63365 -119.30955 32830 ft 438 kts 343°
2026-05-07 08:37 35.66269 -119.32104 33154 ft 438 kts 343°
2026-05-07 08:38 35.69173 -119.33265 33437 ft 438 kts 343°
2026-05-07 08:38 35.72066 -119.34429 33750 ft 437 kts 343°
2026-05-07 08:38 35.74946 -119.35591 34101 ft 435 kts 343°
2026-05-07 08:38 35.77814 -119.36749 34402 ft 433 kts 342°
2026-05-07 08:39 35.80672 -119.37903 34679 ft 431 kts 342°
2026-05-07 08:39 35.83523 -119.39056 34898 ft 431 kts 342°
2026-05-07 08:39 35.86368 -119.40206 35076 ft 432 kts 342°
2026-05-07 08:39 35.89216 -119.41357 35297 ft 431 kts 342°
2026-05-07 08:40 35.92065 -119.42510 35541 ft 430 kts 342°
2026-05-07 08:40 35.94911 -119.43662 35774 ft 429 kts 342°
2026-05-07 08:40 35.97744 -119.44810 35979 ft 429 kts 342°
2026-05-07 08:40 36.00567 -119.45955 36244 ft 426 kts 342°
2026-05-07 08:41 36.03387 -119.47100 36483 ft 425 kts 342°
2026-05-07 08:41 36.06196 -119.48241 36652 ft 425 kts 342°
2026-05-07 08:41 36.09007 -119.49384 36813 ft 425 kts 342°
2026-05-07 08:41 36.11820 -119.50528 37011 ft 425 kts 342°
2026-05-07 08:42 36.14623 -119.51669 37213 ft 424 kts 342°
2026-05-07 08:42 36.17420 -119.52808 37373 ft 424 kts 341°
2026-05-07 08:42 36.20227 -119.53953 37530 ft 423 kts 341°
2026-05-07 08:42 36.23027 -119.55095 37675 ft 423 kts 341°
2026-05-07 08:43 36.25791 -119.56224 37812 ft 423 kts 341°
2026-05-07 08:43 36.28586 -119.57366 37987 ft 423 kts 341°
2026-05-07 08:43 36.31372 -119.58505 38134 ft 423 kts 341°
2026-05-07 08:43 36.34175 -119.59652 38123 ft 425 kts 341°
2026-05-07 08:44 36.39774 -119.61946 38130 ft 422 kts 341°
2026-05-07 08:44 36.45326 -119.64225 38131 ft 418 kts 341°
2026-05-07 08:45 36.50842 -119.66492 38127 ft 416 kts 341°
2026-05-07 08:45 36.56327 -119.68750 38134 ft 415 kts 341°
2026-05-07 08:46 36.61829 -119.70932 38135 ft 415 kts 343°
2026-05-07 08:46 36.67424 -119.72822 38144 ft 417 kts 344°
2026-05-07 08:47 36.73050 -119.74667 38136 ft 419 kts 344°
2026-05-07 08:47 36.78665 -119.76534 38135 ft 421 kts 344°
2026-05-07 08:48 36.84344 -119.78446 38133 ft 423 kts 344°
2026-05-07 08:48 36.90043 -119.80376 38128 ft 425 kts 344°
2026-05-07 08:49 36.95748 -119.82313 38133 ft 425 kts 343°
2026-05-07 08:49 37.01432 -119.84245 38119 ft 426 kts 343°
2026-05-07 08:50 37.07146 -119.86190 38121 ft 425 kts 343°
2026-05-07 08:50 37.12855 -119.88137 38123 ft 425 kts 343°
2026-05-07 08:51 37.18564 -119.90086 38126 ft 425 kts 343°
2026-05-07 08:51 37.24260 -119.92034 38127 ft 424 kts 343°
2026-05-07 08:52 37.28982 -119.93652 38123 ft 423 kts 343°
2026-05-07 08:52 37.34653 -119.95597 38130 ft 422 kts 343°
2026-05-07 08:53 37.40307 -119.97539 38128 ft 421 kts 343°
2026-05-07 08:53 37.45958 -119.99484 38126 ft 421 kts 343°
2026-05-07 08:54 37.51600 -120.01428 38130 ft 420 kts 343°
2026-05-07 08:54 37.57244 -120.03376 38137 ft 420 kts 343°
2026-05-07 08:55 37.62884 -120.05326 38133 ft 420 kts 343°
2026-05-07 08:55 37.68489 -120.07266 38129 ft 420 kts 343°
2026-05-07 08:56 37.74126 -120.09221 38145 ft 420 kts 343°
2026-05-07 08:56 37.79772 -120.11183 38141 ft 421 kts 343°
2026-05-07 08:57 37.85425 -120.13149 38136 ft 421 kts 343°
2026-05-07 08:57 37.91079 -120.15119 38147 ft 422 kts 343°
2026-05-07 08:58 37.96752 -120.17099 38141 ft 423 kts 343°
2026-05-07 08:58 38.02429 -120.19082 38130 ft 424 kts 343°
2026-05-07 08:59 38.08112 -120.21065 38173 ft 423 kts 343°
2026-05-07 08:59 38.13793 -120.23063 38150 ft 424 kts 343°
2026-05-07 09:00 38.19473 -120.25061 38158 ft 424 kts 343°
2026-05-07 09:00 38.25117 -120.27047 38171 ft 423 kts 343°
2026-05-07 09:01 38.30794 -120.29047 38184 ft 423 kts 343°
2026-05-07 09:01 38.36475 -120.31052 38182 ft 423 kts 343°
2026-05-07 09:02 38.42151 -120.33059 38187 ft 423 kts 343°
2026-05-07 09:02 38.47833 -120.35071 38192 ft 424 kts 343°
2026-05-07 09:03 38.53525 -120.37090 38184 ft 425 kts 343°
2026-05-07 09:03 38.59226 -120.39115 38179 ft 425 kts 343°
2026-05-07 09:04 38.64894 -120.41129 38162 ft 425 kts 343°
2026-05-07 09:04 38.70588 -120.43160 38176 ft 425 kts 343°
2026-05-07 09:05 38.76279 -120.45194 38177 ft 425 kts 343°
2026-05-07 09:05 38.81979 -120.47233 38171 ft 425 kts 343°
2026-05-07 09:06 38.87679 -120.49275 38168 ft 425 kts 343°
2026-05-07 09:06 38.93387 -120.51323 38163 ft 426 kts 343°
2026-05-07 09:07 38.99054 -120.53359 38163 ft 426 kts 343°
2026-05-07 09:07 39.04768 -120.55414 38179 ft 426 kts 344°
2026-05-07 09:08 39.10493 -120.57460 38200 ft 427 kts 344°
2026-05-07 09:08 39.16219 -120.59542 38233 ft 429 kts 344°
2026-05-07 09:09 39.21971 -120.61632 38284 ft 431 kts 345°
2026-05-07 09:09 39.27755 -120.63729 38272 ft 432 kts 345°
2026-05-07 09:10 39.33558 -120.65835 38269 ft 433 kts 345°
2026-05-07 09:10 39.39371 -120.67949 38088 ft 434 kts 345°
2026-05-07 09:11 39.45194 -120.70068 38102 ft 435 kts 345°
2026-05-07 09:11 39.51032 -120.72201 38085 ft 436 kts 345°
2026-05-07 09:12 39.56847 -120.74328 38105 ft 437 kts 345°
2026-05-07 09:12 39.62703 -120.76473 38112 ft 438 kts 345°
2026-05-07 09:13 39.68577 -120.78630 38099 ft 438 kts 345°
2026-05-07 09:13 39.74449 -120.80786 38108 ft 439 kts 345°
2026-05-07 09:14 39.80323 -120.82949 38119 ft 438 kts 345°
2026-05-07 09:14 39.86189 -120.85111 38103 ft 438 kts 345°
2026-05-07 09:15 39.92039 -120.87272 38112 ft 436 kts 345°
2026-05-07 09:15 39.97869 -120.89433 38105 ft 435 kts 345°
2026-05-07 09:16 40.03680 -120.91588 38109 ft 433 kts 345°
2026-05-07 09:16 40.09474 -120.93741 38113 ft 432 kts 345°
2026-05-07 09:17 40.15252 -120.95891 38115 ft 432 kts 345°
2026-05-07 09:17 40.21037 -120.98047 38124 ft 432 kts 345°
2026-05-07 09:18 40.26779 -121.00195 38137 ft 432 kts 345°
2026-05-07 09:18 40.32567 -121.02362 38131 ft 433 kts 345°
2026-05-07 09:19 40.38368 -121.04533 38124 ft 434 kts 345°
2026-05-07 09:19 40.44185 -121.06715 38123 ft 435 kts 345°
2026-05-07 09:20 40.50012 -121.08907 38133 ft 436 kts 345°
2026-05-07 09:20 40.55811 -121.11093 38135 ft 437 kts 345°
2026-05-07 09:21 40.61659 -121.13300 38138 ft 437 kts 345°
2026-05-07 09:21 40.67508 -121.15513 38123 ft 437 kts 345°
2026-05-07 09:22 40.73349 -121.17726 38128 ft 436 kts 345°
2026-05-07 09:22 40.79183 -121.19941 38127 ft 435 kts 345°
2026-05-07 09:23 40.84994 -121.22151 38139 ft 434 kts 344°
2026-05-07 09:23 40.90795 -121.24361 38126 ft 433 kts 344°
2026-05-07 09:24 40.96578 -121.26568 38125 ft 432 kts 344°
2026-05-07 09:24 41.02348 -121.28774 38128 ft 431 kts 344°
2026-05-07 09:25 41.08089 -121.30974 38137 ft 429 kts 344°
2026-05-07 09:25 41.13830 -121.33177 38138 ft 429 kts 344°
2026-05-07 09:26 41.19568 -121.35384 38147 ft 429 kts 344°
2026-05-07 09:26 41.25309 -121.37595 38139 ft 430 kts 344°
2026-05-07 09:27 41.31062 -121.39814 38146 ft 431 kts 344°
2026-05-07 09:28 41.39716 -121.43161 38151 ft 433 kts 344°
2026-05-07 09:28 41.45464 -121.45389 38153 ft 433 kts 344°
2026-05-07 09:29 41.51262 -121.47641 38150 ft 434 kts 344°
2026-05-07 09:29 41.57073 -121.49903 38142 ft 435 kts 343°
2026-05-07 09:30 41.62887 -121.52170 38135 ft 435 kts 343°
2026-05-07 09:30 41.68704 -121.54441 38143 ft 436 kts 343°
2026-05-07 09:31 41.74519 -121.56717 38144 ft 436 kts 343°
2026-05-07 09:31 41.80343 -121.59001 38130 ft 435 kts 343°
2026-05-07 09:32 41.86110 -121.61266 38144 ft 435 kts 343°
2026-05-07 09:32 41.91918 -121.63551 38160 ft 434 kts 343°
2026-05-07 09:33 41.97709 -121.65835 38177 ft 433 kts 343°
2026-05-07 09:33 42.03482 -121.68116 38193 ft 432 kts 343°
2026-05-07 09:34 42.09255 -121.70401 38201 ft 432 kts 343°
2026-05-07 09:34 42.15021 -121.72688 38203 ft 432 kts 343°
2026-05-07 09:35 42.20806 -121.74885 38122 ft 432 kts 344°
2026-05-07 09:35 42.26601 -121.77010 38120 ft 432 kts 344°
2026-05-07 09:36 42.32399 -121.79143 38114 ft 432 kts 344°
2026-05-07 09:36 42.38200 -121.81295 38113 ft 432 kts 344°
2026-05-07 09:37 42.43989 -121.83452 38109 ft 431 kts 344°
2026-05-07 09:37 42.49773 -121.85613 38115 ft 431 kts 344°
2026-05-07 09:38 42.55518 -121.87764 38110 ft 431 kts 344°
2026-05-07 09:38 42.61305 -121.89934 38102 ft 431 kts 344°
2026-05-07 09:39 42.67077 -121.92103 38108 ft 430 kts 344°
2026-05-07 09:39 42.72851 -121.94276 38111 ft 430 kts 343°
2026-05-07 09:40 42.78627 -121.96455 38099 ft 430 kts 343°
2026-05-07 09:40 42.84387 -121.98632 38103 ft 429 kts 343°
2026-05-07 09:41 42.90108 -122.00797 38109 ft 429 kts 343°
2026-05-07 09:41 42.95859 -122.02980 38119 ft 429 kts 343°
2026-05-07 09:42 43.01620 -122.05169 38102 ft 430 kts 343°
2026-05-07 09:42 43.07385 -122.07364 38113 ft 430 kts 343°
2026-05-07 09:43 43.12215 -122.09207 38101 ft 430 kts 343°
2026-05-07 09:43 43.17981 -122.11411 38126 ft 430 kts 343°
2026-05-07 09:44 43.23746 -122.13620 38116 ft 430 kts 343°
2026-05-07 09:44 43.29470 -122.15815 38115 ft 429 kts 342°
2026-05-07 09:45 43.35209 -122.18022 38113 ft 428 kts 342°
2026-05-07 09:45 43.40937 -122.20229 38121 ft 427 kts 342°
2026-05-07 09:46 43.46650 -122.22434 38127 ft 426 kts 342°
2026-05-07 09:46 43.52336 -122.24633 38139 ft 424 kts 342°
2026-05-07 09:47 43.58014 -122.26832 38140 ft 422 kts 342°
2026-05-07 09:47 43.63668 -122.29014 38148 ft 422 kts 342°
2026-05-07 09:48 43.69319 -122.31222 38139 ft 422 kts 342°
2026-05-07 09:48 43.74967 -122.33428 38144 ft 422 kts 342°
2026-05-07 09:49 43.80608 -122.35632 38147 ft 421 kts 342°
2026-05-07 09:49 43.86254 -122.37842 38152 ft 422 kts 342°
2026-05-07 09:50 43.91905 -122.40058 38169 ft 422 kts 342°
2026-05-07 09:50 43.97516 -122.42261 38161 ft 422 kts 342°
2026-05-07 09:51 44.03168 -122.44486 38183 ft 422 kts 342°
2026-05-07 09:51 44.08825 -122.46718 38177 ft 423 kts 342°
2026-05-07 09:52 44.14494 -122.48960 38169 ft 424 kts 342°
2026-05-07 09:52 44.20166 -122.51206 38184 ft 423 kts 341°
2026-05-07 09:53 44.25828 -122.53451 38191 ft 423 kts 341°
2026-05-07 09:53 44.31479 -122.55696 38189 ft 422 kts 341°
2026-05-07 09:54 44.37125 -122.57946 38189 ft 422 kts 341°
2026-05-07 09:54 44.42777 -122.60202 38189 ft 421 kts 341°
2026-05-07 09:55 44.48410 -122.62455 38192 ft 421 kts 341°
2026-05-07 09:55 44.54000 -122.64696 38192 ft 421 kts 341°
2026-05-07 09:56 44.59628 -122.66957 38188 ft 421 kts 341°
2026-05-07 09:56 44.65266 -122.69225 38191 ft 421 kts 341°
2026-05-07 09:57 44.70892 -122.71494 38199 ft 420 kts 341°
2026-05-07 09:57 44.76516 -122.73766 38191 ft 420 kts 341°
2026-05-07 09:58 44.82126 -122.76037 38187 ft 419 kts 341°
2026-05-07 09:58 44.87728 -122.78310 38197 ft 419 kts 341°
2026-05-07 09:59 44.93324 -122.80585 38201 ft 418 kts 340°
2026-05-07 09:59 44.98880 -122.82848 38217 ft 418 kts 340°
2026-05-07 10:00 45.04473 -122.85131 38207 ft 418 kts 340°
2026-05-07 10:00 45.10061 -122.87417 38217 ft 418 kts 340°
2026-05-07 10:01 45.15652 -122.89708 38223 ft 418 kts 340°
2026-05-07 10:01 45.21243 -122.92005 38221 ft 418 kts 340°
2026-05-07 10:02 45.26837 -122.94307 38211 ft 419 kts 340°
2026-05-07 10:02 45.32432 -122.96614 38212 ft 418 kts 340°
2026-05-07 10:03 45.37975 -122.99093 38218 ft 417 kts 336°
2026-05-07 10:03 45.43379 -123.01959 38221 ft 416 kts 335°
2026-05-07 10:04 45.48788 -123.04891 38227 ft 416 kts 335°
2026-05-07 10:04 45.54207 -123.07803 38220 ft 416 kts 335°
2026-05-07 10:05 45.59635 -123.10701 38218 ft 416 kts 336°
2026-05-07 10:05 45.65070 -123.13600 38219 ft 417 kts 335°
2026-05-07 10:06 45.70508 -123.16505 38224 ft 418 kts 335°
2026-05-07 10:06 45.75930 -123.19409 38236 ft 419 kts 335°
2026-05-07 10:07 45.81385 -123.22336 38232 ft 419 kts 335°
2026-05-07 10:07 45.86843 -123.25270 38219 ft 419 kts 335°
2026-05-07 10:08 45.92302 -123.28212 38235 ft 419 kts 335°
2026-05-07 10:08 45.97753 -123.31155 38240 ft 419 kts 335°
2026-05-07 10:09 46.03210 -123.34108 38225 ft 419 kts 335°
2026-05-07 10:09 46.08663 -123.37065 38240 ft 418 kts 335°
2026-05-07 10:10 46.14115 -123.40028 38243 ft 418 kts 335°
2026-05-07 10:10 46.19565 -123.42996 38236 ft 418 kts 335°
2026-05-07 10:11 46.24998 -123.45961 38244 ft 418 kts 335°
2026-05-07 10:11 46.30428 -123.48931 38242 ft 417 kts 335°
2026-05-07 10:12 46.35847 -123.51901 38244 ft 416 kts 335°
2026-05-07 10:12 46.41260 -123.54874 38260 ft 416 kts 334°
2026-05-07 10:13 46.46634 -123.57831 38237 ft 416 kts 334°
2026-05-07 10:13 46.52043 -123.60816 38238 ft 416 kts 334°
2026-05-07 10:14 46.57456 -123.63809 38237 ft 416 kts 334°
2026-05-07 10:14 46.62865 -123.66804 38246 ft 415 kts 334°
2026-05-07 10:15 46.68262 -123.69800 38243 ft 415 kts 334°
2026-05-07 10:15 46.73657 -123.72802 38239 ft 415 kts 334°
2026-05-07 10:16 46.79059 -123.75813 38241 ft 415 kts 334°
2026-05-07 10:16 46.84454 -123.78828 38248 ft 415 kts 334°
2026-05-07 10:17 46.89825 -123.81835 38241 ft 416 kts 334°
2026-05-07 10:17 46.95227 -123.84867 38242 ft 416 kts 334°
2026-05-07 10:18 47.00631 -123.87906 38260 ft 416 kts 333°
2026-05-07 10:18 47.06039 -123.90953 38243 ft 416 kts 333°
2026-05-07 10:19 47.11431 -123.93998 38235 ft 415 kts 333°
2026-05-07 10:19 47.16826 -123.97052 38236 ft 415 kts 333°
2026-05-07 10:20 47.22207 -124.00104 38239 ft 414 kts 333°
2026-05-07 10:20 47.27577 -124.03157 38243 ft 414 kts 333°
2026-05-07 10:21 47.32951 -124.06219 38241 ft 414 kts 333°
2026-05-07 10:21 47.38318 -124.09284 38229 ft 413 kts 333°
2026-05-07 10:22 47.43677 -124.12351 38242 ft 413 kts 333°
2026-05-07 10:22 47.49000 -124.15403 38236 ft 413 kts 333°
2026-05-07 10:23 47.54357 -124.18483 38242 ft 413 kts 333°
2026-05-07 10:23 47.59716 -124.21570 38233 ft 413 kts 333°
2026-05-07 10:24 47.65083 -124.24668 38237 ft 414 kts 332°
2026-05-07 10:24 47.70433 -124.27763 38237 ft 412 kts 332°
2026-05-07 10:25 47.75778 -124.30862 38221 ft 412 kts 332°
2026-05-07 10:25 47.81105 -124.33957 38220 ft 410 kts 332°
2026-05-07 10:26 47.86414 -124.37049 38232 ft 409 kts 332°
2026-05-07 10:26 47.91686 -124.40127 38234 ft 409 kts 332°
2026-05-07 10:27 47.96984 -124.43227 38226 ft 409 kts 332°
2026-05-07 10:27 48.02278 -124.46331 38233 ft 408 kts 332°
2026-05-07 10:28 48.07566 -124.49438 38230 ft 408 kts 332°
2026-05-07 10:28 48.12857 -124.52554 38217 ft 408 kts 332°
2026-05-07 10:29 48.18143 -124.55675 38220 ft 408 kts 332°
2026-05-07 10:29 48.23433 -124.58803 38208 ft 409 kts 332°
2026-05-07 10:30 48.31267 -124.63792 38214 ft 402 kts 323°
2026-05-07 10:30 48.35954 -124.68242 38210 ft 401 kts 322°
2026-05-07 10:31 48.40654 -124.72771 38212 ft 401 kts 322°
2026-05-07 10:31 48.45358 -124.77286 38205 ft 401 kts 322°
2026-05-07 10:32 48.50065 -124.81793 38220 ft 401 kts 322°
2026-05-07 10:32 48.54013 -124.85574 38200 ft 401 kts 322°
2026-05-07 10:33 48.58723 -124.90092 38197 ft 401 kts 322°
2026-05-07 10:33 48.63397 -124.94585 38198 ft 401 kts 322°
2026-05-07 10:34 48.68130 -124.99145 38198 ft 400 kts 321°
2026-05-07 10:34 48.72799 -125.03655 38211 ft 400 kts 321°
2026-05-07 10:35 48.77498 -125.08203 38213 ft 400 kts 321°
2026-05-07 10:35 48.82192 -125.12757 38195 ft 400 kts 321°
2026-05-07 10:36 48.86881 -125.17316 38193 ft 400 kts 321°
2026-05-07 10:36 48.91561 -125.21875 38205 ft 399 kts 321°
2026-05-07 10:37 48.96237 -125.26443 38202 ft 399 kts 321°
2026-05-07 10:37 49.00909 -125.31017 38198 ft 399 kts 321°
2026-05-07 10:38 49.05582 -125.35600 38202 ft 399 kts 321°
2026-05-07 10:38 49.10218 -125.40159 38199 ft 398 kts 321°
2026-05-07 10:39 49.14878 -125.44752 38200 ft 399 kts 321°
2026-05-07 10:39 49.19536 -125.49351 38188 ft 398 kts 321°
2026-05-07 10:40 49.24187 -125.53956 38205 ft 397 kts 321°
2026-05-07 10:40 49.28835 -125.58575 38217 ft 398 kts 321°
2026-05-07 10:41 49.33484 -125.63189 38235 ft 396 kts 320°
2026-05-07 10:41 49.38122 -125.67824 38183 ft 399 kts 320°
2026-05-07 10:42 49.42769 -125.72460 38225 ft 397 kts 320°
2026-05-07 10:42 49.47405 -125.77104 38206 ft 397 kts 320°
2026-05-07 10:43 49.52036 -125.81753 38205 ft 398 kts 320°
2026-05-07 10:43 49.56668 -125.86413 38206 ft 398 kts 320°
2026-05-07 10:44 49.61304 -125.91090 38191 ft 398 kts 320°
2026-05-07 10:44 49.65939 -125.95778 38178 ft 397 kts 320°
2026-05-07 10:45 49.70561 -126.00479 38234 ft 399 kts 320°
2026-05-07 10:45 49.75207 -126.05178 38231 ft 399 kts 320°
2026-05-07 10:46 49.79835 -126.09886 38222 ft 396 kts 320°
2026-05-07 10:46 49.84435 -126.14573 38244 ft 396 kts 320°
2026-05-07 10:47 49.89032 -126.19272 38254 ft 396 kts 320°
2026-05-07 10:47 49.93642 -126.23996 38235 ft 397 kts 320°
2026-05-07 10:48 49.98221 -126.28699 38245 ft 397 kts 320°
2026-05-07 10:48 50.02832 -126.33450 38249 ft 398 kts 320°
2026-05-07 10:49 50.07456 -126.38223 38270 ft 399 kts 320°
2026-05-07 10:49 50.12096 -126.43023 38249 ft 400 kts 320°
2026-05-07 10:50 50.16730 -126.47827 38258 ft 400 kts 321°
2026-05-07 10:50 50.21352 -126.52629 38268 ft 399 kts 320°
2026-05-07 10:51 50.25972 -126.57443 38272 ft 398 kts 320°
2026-05-07 10:51 50.30580 -126.62256 38294 ft 399 kts 320°
2026-05-07 10:52 50.35203 -126.67096 38245 ft 400 kts 320°
2026-05-07 10:52 50.39803 -126.71906 38259 ft 397 kts 320°
2026-05-07 10:53 50.44387 -126.76733 38269 ft 398 kts 320°
2026-05-07 10:53 50.48981 -126.81594 38267 ft 399 kts 320°
2026-05-07 10:54 50.53603 -126.86478 38273 ft 401 kts 320°
2026-05-07 10:54 50.58228 -126.91373 38268 ft 400 kts 320°
2026-05-07 10:55 50.62806 -126.96230 38263 ft 399 kts 320°
2026-05-07 10:55 50.67398 -127.01117 38265 ft 398 kts 320°
2026-05-07 10:56 50.71979 -127.06006 38263 ft 397 kts 320°
2026-05-07 10:56 50.76549 -127.10894 38263 ft 396 kts 320°
2026-05-07 10:57 50.81112 -127.15787 38256 ft 396 kts 320°
2026-05-07 10:57 50.85666 -127.20681 38252 ft 395 kts 320°
2026-05-07 10:58 50.90211 -127.25577 38258 ft 395 kts 320°
2026-05-07 10:58 50.94760 -127.30490 38263 ft 396 kts 320°
2026-05-07 10:59 50.99309 -127.35415 38251 ft 396 kts 320°
2026-05-07 10:59 51.03851 -127.40343 38251 ft 395 kts 320°
2026-05-07 11:00 51.08395 -127.45285 38253 ft 395 kts 320°
2026-05-07 11:00 51.12934 -127.50234 38272 ft 396 kts 319°
2026-05-07 11:01 51.17446 -127.55166 38264 ft 396 kts 319°
2026-05-07 11:01 51.21988 -127.60142 38262 ft 396 kts 319°
2026-05-07 11:02 51.26523 -127.65123 38618 ft 394 kts 319°
2026-05-07 11:02 51.28777 -127.67601 38928 ft 391 kts 319°
2026-05-07 11:02 51.31021 -127.70070 39123 ft 390 kts 319°
2026-05-07 11:03 51.33251 -127.72531 39262 ft 390 kts 319°
2026-05-07 11:03 51.35486 -127.75001 39361 ft 391 kts 319°
2026-05-07 11:03 51.39971 -127.79967 39502 ft 393 kts 319°
2026-05-07 11:04 51.42220 -127.82460 39631 ft 393 kts 319°
2026-05-07 11:04 51.44468 -127.84955 39721 ft 394 kts 319°
2026-05-07 11:04 51.48962 -127.89942 39854 ft 395 kts 319°
2026-05-07 11:05 51.53490 -127.94978 40061 ft 396 kts 319°
2026-05-07 11:05 51.55743 -127.97501 40181 ft 394 kts 319°
2026-05-07 11:05 51.58000 -128.00028 40236 ft 395 kts 319°
2026-05-07 11:06 51.62528 -128.05110 40252 ft 398 kts 319°
2026-05-07 11:06 51.67068 -128.10207 40252 ft 398 kts 319°
2026-05-07 11:07 51.71616 -128.15324 40256 ft 399 kts 319°
2026-05-07 11:07 51.76163 -128.20455 40258 ft 399 kts 319°
2026-05-07 11:08 51.80715 -128.25604 40260 ft 399 kts 319°
2026-05-07 11:08 51.85266 -128.30766 40261 ft 400 kts 319°
2026-05-07 11:09 51.89819 -128.35942 40280 ft 400 kts 319°
2026-05-07 11:09 51.94340 -128.41095 40263 ft 400 kts 319°
2026-05-07 11:10 51.98889 -128.46293 40264 ft 400 kts 319°
2026-05-07 11:10 52.03431 -128.51496 40250 ft 399 kts 319°
2026-05-07 11:11 52.07963 -128.56702 40242 ft 399 kts 319°
2026-05-07 11:11 52.12498 -128.61924 40257 ft 398 kts 319°
2026-05-07 11:12 52.17013 -128.67136 40253 ft 398 kts 319°
2026-05-07 11:12 52.21524 -128.72356 40241 ft 397 kts 319°
2026-05-07 11:13 52.25991 -128.77636 40250 ft 396 kts 317°
2026-05-07 11:13 52.30329 -128.83148 40251 ft 395 kts 316°
2026-05-07 11:14 52.34641 -128.88695 40249 ft 395 kts 316°
2026-05-07 11:14 52.38966 -128.94241 40260 ft 395 kts 316°
2026-05-07 11:15 52.43301 -128.99791 40252 ft 395 kts 316°
2026-05-07 11:15 52.47609 -129.05312 40256 ft 396 kts 316°
2026-05-07 11:16 52.51944 -129.10877 40253 ft 396 kts 316°
2026-05-07 11:16 52.56280 -129.16459 40255 ft 396 kts 316°
2026-05-07 11:17 52.60614 -129.22053 40255 ft 396 kts 316°
2026-05-07 11:17 52.64953 -129.27668 40252 ft 396 kts 316°
2026-05-07 11:18 52.69286 -129.33289 40253 ft 397 kts 316°
2026-05-07 11:18 52.73618 -129.38924 40251 ft 396 kts 316°
2026-05-07 11:19 52.77219 -129.43618 40247 ft 396 kts 316°
2026-05-07 11:19 52.82252 -129.50198 40260 ft 397 kts 315°
2026-05-07 11:20 52.85877 -129.54950 40255 ft 397 kts 315°
2026-05-07 11:20 52.90172 -129.60592 40256 ft 397 kts 315°
2026-05-07 11:21 52.94493 -129.66284 40254 ft 396 kts 315°
2026-05-07 11:21 52.98803 -129.71976 40267 ft 396 kts 315°
2026-05-07 11:22 53.03113 -129.77684 40261 ft 396 kts 315°
2026-05-07 11:22 53.07421 -129.83404 40261 ft 396 kts 315°
2026-05-07 11:23 53.11735 -129.89146 40261 ft 397 kts 315°
2026-05-07 11:23 53.16039 -129.94892 40261 ft 397 kts 315°
2026-05-07 11:24 53.20350 -130.00661 40282 ft 397 kts 315°
2026-05-07 11:24 53.24659 -130.06444 40274 ft 398 kts 315°
2026-05-07 11:25 53.28944 -130.12208 40264 ft 398 kts 315°
2026-05-07 11:25 53.33257 -130.18028 40265 ft 399 kts 315°
2026-05-07 11:26 53.37566 -130.23856 40259 ft 399 kts 315°
2026-05-07 11:26 53.41885 -130.29713 40298 ft 399 kts 315°
2026-05-07 11:27 53.46214 -130.35601 40275 ft 400 kts 315°
2026-05-07 11:27 53.50546 -130.41508 40264 ft 401 kts 315°
2026-05-07 11:28 53.54873 -130.47424 40254 ft 401 kts 315°
2026-05-07 11:28 53.59196 -130.53351 40257 ft 401 kts 315°
2026-05-07 11:29 53.63522 -130.59299 40260 ft 401 kts 315°
2026-05-07 11:29 53.67844 -130.65257 40255 ft 401 kts 315°
2026-05-07 11:30 53.72169 -130.71235 40257 ft 401 kts 315°
2026-05-07 11:30 53.76485 -130.77217 40256 ft 401 kts 315°
2026-05-07 11:31 53.80763 -130.83163 40265 ft 401 kts 315°
2026-05-07 11:31 53.85070 -130.89167 40269 ft 401 kts 314°
2026-05-07 11:32 53.91531 -130.98202 40285 ft 401 kts 314°
2026-05-07 11:33 53.95834 -131.04241 40288 ft 401 kts 314°
2026-05-07 11:33 54.00138 -131.10299 40288 ft 401 kts 314°
2026-05-07 11:34 54.04432 -131.16359 40309 ft 402 kts 314°
2026-05-07 11:34 54.08734 -131.22447 40293 ft 402 kts 314°
2026-05-07 11:35 54.13034 -131.28549 40294 ft 402 kts 314°
2026-05-07 11:35 54.17308 -131.34631 40294 ft 403 kts 314°
2026-05-07 11:36 54.21610 -131.40771 40302 ft 403 kts 314°
2026-05-07 11:36 54.25916 -131.46933 40300 ft 403 kts 314°
2026-05-07 11:37 54.30217 -131.53104 40300 ft 403 kts 314°
2026-05-07 11:37 54.34514 -131.59288 40303 ft 403 kts 314°
2026-05-07 11:38 54.38807 -131.65484 40302 ft 403 kts 314°
2026-05-07 11:38 54.43098 -131.71694 40298 ft 403 kts 314°
2026-05-07 11:39 54.47387 -131.77920 40301 ft 404 kts 314°
2026-05-07 11:39 54.51678 -131.84166 40298 ft 404 kts 314°
2026-05-07 11:40 54.55968 -131.90429 40301 ft 404 kts 314°
2026-05-07 11:40 54.60257 -131.96707 40298 ft 404 kts 314°
2026-05-07 11:41 54.64516 -132.02959 40303 ft 404 kts 313°
2026-05-07 11:41 54.68803 -132.09272 40313 ft 405 kts 313°
2026-05-07 11:42 54.73089 -132.15600 40298 ft 405 kts 313°
2026-05-07 11:42 54.77372 -132.21942 40299 ft 405 kts 313°
2026-05-07 11:43 54.81651 -132.28296 40299 ft 405 kts 313°
2026-05-07 11:43 54.85928 -132.34667 40299 ft 405 kts 313°
2026-05-07 11:44 54.90211 -132.41066 40305 ft 406 kts 313°
2026-05-07 11:44 54.94500 -132.47492 40301 ft 407 kts 313°
2026-05-07 11:45 54.98796 -132.53946 40298 ft 408 kts 313°
2026-05-07 11:45 55.03091 -132.60418 40298 ft 409 kts 313°
2026-05-07 11:46 55.07369 -132.66892 40318 ft 410 kts 313°
2026-05-07 11:46 55.11684 -132.73433 40313 ft 411 kts 313°
2026-05-07 11:47 55.16006 -132.79999 40304 ft 412 kts 313°
2026-05-07 11:47 55.20326 -132.86584 40303 ft 412 kts 313°
2026-05-07 11:48 55.24645 -132.93188 40312 ft 412 kts 313°
2026-05-07 11:48 55.28965 -132.99816 40324 ft 413 kts 313°
2026-05-07 11:49 55.33283 -133.06460 40315 ft 413 kts 313°
2026-05-07 11:49 55.37605 -133.13128 40299 ft 413 kts 313°
2026-05-07 11:50 55.41909 -133.19800 40303 ft 413 kts 313°
2026-05-07 11:50 55.46218 -133.26485 40308 ft 413 kts 313°
2026-05-07 11:51 55.50527 -133.33194 40342 ft 413 kts 313°
2026-05-07 11:51 55.54839 -133.39931 40317 ft 414 kts 313°
2026-05-07 11:52 55.59156 -133.46697 40303 ft 415 kts 313°
2026-05-07 11:52 55.63448 -133.53441 40308 ft 415 kts 313°
2026-05-07 11:53 55.67766 -133.60248 40312 ft 415 kts 313°
2026-05-07 11:53 55.72079 -133.67070 40318 ft 416 kts 313°
2026-05-07 11:54 55.76400 -133.73924 40312 ft 417 kts 312°
2026-05-07 11:54 55.80721 -133.80799 40307 ft 417 kts 312°
2026-05-07 11:55 55.85038 -133.87690 40304 ft 417 kts 312°
2026-05-07 11:55 55.89353 -133.94598 40308 ft 417 kts 312°
2026-05-07 11:56 55.93671 -134.01535 40318 ft 418 kts 312°
2026-05-07 11:56 55.97993 -134.08499 40314 ft 419 kts 312°
2026-05-07 11:57 56.02315 -134.15486 40307 ft 419 kts 312°
2026-05-07 11:57 56.06640 -134.22498 40307 ft 420 kts 312°
2026-05-07 11:58 56.10970 -134.29542 40307 ft 421 kts 312°
2026-05-07 11:58 56.15290 -134.36591 40323 ft 421 kts 312°
2026-05-07 11:59 56.19630 -134.43695 40322 ft 422 kts 312°
2026-05-07 11:59 56.23960 -134.50806 40320 ft 422 kts 312°
2026-05-07 12:00 56.28291 -134.57940 40320 ft 422 kts 311°
2026-05-07 12:00 56.32592 -134.65050 40314 ft 423 kts 311°
2026-05-07 12:01 56.36919 -134.72224 40317 ft 423 kts 312°
2026-05-07 12:01 56.41249 -134.79427 40302 ft 423 kts 311°
2026-05-07 12:02 56.45579 -134.86654 40293 ft 424 kts 311°
2026-05-07 12:02 56.49907 -134.93899 40304 ft 423 kts 311°
2026-05-07 12:03 56.54226 -135.01151 40303 ft 423 kts 311°
2026-05-07 12:03 56.58542 -135.08428 40303 ft 424 kts 311°
2026-05-07 12:04 56.62858 -135.15726 40301 ft 424 kts 311°
2026-05-07 12:04 56.67146 -135.22999 40298 ft 424 kts 311°
2026-05-07 12:05 56.71454 -135.30331 40301 ft 424 kts 311°
2026-05-07 12:05 56.75753 -135.37672 40307 ft 424 kts 311°
2026-05-07 12:06 56.80059 -135.45051 40314 ft 425 kts 311°
2026-05-07 12:06 56.84367 -135.52453 40301 ft 425 kts 311°
2026-05-07 12:07 56.88336 -135.60377 40301 ft 420 kts 303°
2026-05-07 12:07 56.91323 -135.67388 40297 ft 420 kts 303°
2026-05-07 12:08 56.94898 -135.75876 40300 ft 421 kts 303°
2026-05-07 12:08 56.98492 -135.84352 40308 ft 422 kts 303°
2026-05-07 12:09 57.02107 -135.92845 40304 ft 423 kts 303°
2026-05-07 12:09 57.05730 -136.01367 40297 ft 423 kts 303°
2026-05-07 12:10 57.09344 -136.09894 40298 ft 423 kts 303°
2026-05-07 12:10 57.12959 -136.18452 40296 ft 423 kts 303°
2026-05-07 12:11 57.16543 -136.26971 40307 ft 424 kts 303°
2026-05-07 12:11 57.20169 -136.35619 40300 ft 424 kts 303°
2026-05-07 12:12 57.23748 -136.44187 40293 ft 423 kts 303°
2026-05-07 12:12 57.27336 -136.52806 40284 ft 423 kts 302°
2026-05-07 12:13 57.30919 -136.61445 40289 ft 423 kts 302°
2026-05-07 12:13 57.34488 -136.70084 40304 ft 423 kts 302°
2026-05-07 12:14 57.38051 -136.78737 40295 ft 422 kts 302°
2026-05-07 12:14 57.41609 -136.87409 40283 ft 422 kts 302°
2026-05-07 12:15 57.45163 -136.96102 40285 ft 422 kts 302°
2026-05-07 12:15 57.48704 -137.04795 40282 ft 422 kts 302°
2026-05-07 12:16 57.52240 -137.13510 40298 ft 422 kts 302°
2026-05-07 12:16 57.55783 -137.22271 40287 ft 423 kts 302°
2026-05-07 12:17 57.59320 -137.31051 40280 ft 424 kts 302°
2026-05-07 12:17 57.62857 -137.39864 40278 ft 424 kts 302°
2026-05-07 12:18 57.66368 -137.48641 40277 ft 425 kts 302°
2026-05-07 12:18 57.69920 -137.57556 40301 ft 426 kts 302°
2026-05-07 12:19 57.73432 -137.66404 40281 ft 427 kts 302°
2026-05-07 12:19 57.76967 -137.75341 40273 ft 427 kts 302°
2026-05-07 12:20 57.80497 -137.84299 40274 ft 428 kts 301°
2026-05-07 12:20 57.84031 -137.93302 40273 ft 428 kts 301°
2026-05-07 12:21 57.87558 -138.02320 40293 ft 428 kts 301°
2026-05-07 12:21 57.91082 -138.11365 40276 ft 429 kts 301°
2026-05-07 12:22 57.94598 -138.20426 40270 ft 429 kts 301°
2026-05-07 12:22 57.98117 -138.29525 40269 ft 429 kts 301°
2026-05-07 12:23 58.01620 -138.38621 40266 ft 429 kts 301°
2026-05-07 12:23 58.05124 -138.47752 40266 ft 429 kts 301°
2026-05-07 12:24 58.08621 -138.56899 40275 ft 430 kts 301°
2026-05-07 12:24 58.12094 -138.66021 40260 ft 430 kts 301°
2026-05-07 12:25 58.15581 -138.75213 40261 ft 430 kts 301°
2026-05-07 12:25 58.19066 -138.84436 40270 ft 430 kts 301°
2026-05-07 12:26 58.22546 -138.93680 40252 ft 431 kts 301°
2026-05-07 12:26 58.26021 -139.02950 40255 ft 431 kts 301°
2026-05-07 12:27 58.29497 -139.12255 40263 ft 431 kts 301°
2026-05-07 12:27 58.32957 -139.21557 40257 ft 431 kts 301°
2026-05-07 12:28 58.36414 -139.30884 40261 ft 431 kts 300°
2026-05-07 12:28 58.39859 -139.40217 40267 ft 431 kts 300°
2026-05-07 12:29 58.43283 -139.49529 40256 ft 431 kts 300°
2026-05-07 12:29 58.46724 -139.58924 40256 ft 432 kts 300°
2026-05-07 12:30 58.50158 -139.68339 40257 ft 432 kts 300°
2026-05-07 12:30 58.53589 -139.77781 40257 ft 432 kts 300°
2026-05-07 12:31 58.57010 -139.87235 40242 ft 432 kts 300°
2026-05-07 12:31 58.60434 -139.96733 40254 ft 433 kts 300°
2026-05-07 12:32 58.63857 -140.06268 40246 ft 434 kts 300°
2026-05-07 12:32 58.67253 -140.15765 40246 ft 434 kts 300°
2026-05-07 12:33 58.72368 -140.30143 40242 ft 435 kts 300°
2026-05-07 12:33 58.75794 -140.39823 40242 ft 435 kts 300°
2026-05-07 12:34 58.79196 -140.49467 40248 ft 435 kts 300°
2026-05-07 12:34 58.82494 -140.59183 40244 ft 434 kts 297°
2026-05-07 12:35 58.85593 -140.69190 40237 ft 434 kts 297°
2026-05-07 12:35 58.88667 -140.79239 40234 ft 434 kts 297°
2026-05-07 12:36 58.91758 -140.89285 40236 ft 434 kts 297°
2026-05-07 12:36 58.94854 -140.99325 40246 ft 435 kts 297°
2026-05-07 12:37 58.97956 -141.09409 40247 ft 435 kts 297°
2026-05-07 12:37 59.01047 -141.19500 40237 ft 435 kts 297°
2026-05-07 12:38 59.04129 -141.29606 40231 ft 435 kts 297°
2026-05-07 12:38 59.07180 -141.39655 40244 ft 435 kts 296°
2026-05-07 12:39 59.10245 -141.49793 40238 ft 435 kts 296°
2026-05-07 12:39 59.13309 -141.59973 40236 ft 435 kts 296°
2026-05-07 12:40 59.16363 -141.70165 40228 ft 436 kts 296°
2026-05-07 12:40 59.19413 -141.80388 40226 ft 436 kts 296°
2026-05-07 12:41 59.22455 -141.90631 40226 ft 436 kts 296°
2026-05-07 12:41 59.25472 -142.00835 40239 ft 437 kts 296°
2026-05-07 12:42 59.28526 -142.11208 40226 ft 437 kts 296°
2026-05-07 12:42 59.31551 -142.21530 40221 ft 438 kts 296°
2026-05-07 12:43 59.34554 -142.31823 40212 ft 438 kts 296°
2026-05-07 12:43 59.37570 -142.42208 40212 ft 438 kts 296°
2026-05-07 12:44 59.40577 -142.52606 40225 ft 438 kts 296°
2026-05-07 12:44 59.43582 -142.63048 40209 ft 439 kts 296°
2026-05-07 12:45 59.46580 -142.73509 40199 ft 439 kts 296°
2026-05-07 12:45 59.49574 -142.84006 40199 ft 440 kts 296°
2026-05-07 12:46 59.52559 -142.94520 40196 ft 440 kts 295°
2026-05-07 12:46 59.55533 -143.05044 40225 ft 440 kts 296°
2026-05-07 12:47 59.58503 -143.15602 40206 ft 440 kts 295°
2026-05-07 12:47 59.61471 -143.26202 40191 ft 441 kts 295°
2026-05-07 12:48 59.64431 -143.36820 40186 ft 441 kts 295°
2026-05-07 12:48 59.67362 -143.47387 40186 ft 441 kts 295°
2026-05-07 12:49 59.70304 -143.58040 40185 ft 441 kts 295°
2026-05-07 12:49 59.73240 -143.68725 40190 ft 442 kts 295°
2026-05-07 12:50 59.76171 -143.79439 40187 ft 442 kts 295°
2026-05-07 12:50 59.79096 -143.90183 40178 ft 442 kts 295°
2026-05-07 12:51 59.82014 -144.00952 40178 ft 442 kts 295°
2026-05-07 12:51 59.84919 -144.11724 40178 ft 442 kts 295°
2026-05-07 12:52 59.87819 -144.22532 40175 ft 443 kts 295°
2026-05-07 12:52 59.90711 -144.33361 40176 ft 442 kts 295°
2026-05-07 12:53 59.93591 -144.44194 40177 ft 442 kts 294°
2026-05-07 12:53 59.96467 -144.55068 40175 ft 442 kts 294°
2026-05-07 12:54 59.99330 -144.65945 40180 ft 442 kts 294°
2026-05-07 12:54 60.02177 -144.76811 40195 ft 443 kts 294°
2026-05-07 12:55 60.04541 -144.85874 40186 ft 443 kts 294°
2026-05-07 12:55 60.07382 -144.96817 40180 ft 443 kts 294°
2026-05-07 12:56 60.10669 -145.09544 40179 ft 443 kts 294°
2026-05-07 12:56 60.13035 -145.18752 40196 ft 443 kts 294°
2026-05-07 12:57 60.15846 -145.29741 40210 ft 443 kts 294°
2026-05-07 12:57 60.18648 -145.40746 40204 ft 443 kts 294°
2026-05-07 12:58 60.21427 -145.51717 40199 ft 443 kts 294°
2026-05-07 12:58 60.24216 -145.62786 40199 ft 443 kts 294°
2026-05-07 12:59 60.26998 -145.73876 40201 ft 443 kts 294°
2026-05-07 12:59 60.29765 -145.84965 40188 ft 443 kts 294°
2026-05-07 13:00 60.32533 -145.96115 40199 ft 444 kts 294°
2026-05-07 13:00 60.35291 -146.07281 40194 ft 444 kts 293°
2026-05-07 13:01 60.38037 -146.18455 40184 ft 445 kts 293°
2026-05-07 13:01 60.40777 -146.29660 40184 ft 445 kts 293°
2026-05-07 13:02 60.43512 -146.40903 40173 ft 445 kts 293°
2026-05-07 13:02 60.46238 -146.52162 40180 ft 445 kts 293°
2026-05-07 13:03 60.49116 -146.63213 40156 ft 449 kts 302°
2026-05-07 13:03 60.52887 -146.73337 40171 ft 450 kts 305°
2026-05-07 13:04 60.56721 -146.83382 40159 ft 450 kts 304°
2026-05-07 13:04 60.60468 -146.93572 40160 ft 450 kts 303°
2026-05-07 13:05 60.64184 -147.03809 40173 ft 450 kts 303°
2026-05-07 13:05 60.67862 -147.14143 40166 ft 450 kts 302°
2026-05-07 13:06 60.71499 -147.24526 40162 ft 450 kts 302°
2026-05-07 13:06 60.75131 -147.34928 40163 ft 450 kts 302°
2026-05-07 13:07 60.78763 -147.45357 40162 ft 449 kts 302°
2026-05-07 13:07 60.80589 -147.50618 39688 ft 457 kts 302°
2026-05-07 13:07 60.82422 -147.55909 39235 ft 454 kts 302°
2026-05-07 13:08 60.84254 -147.61206 38424 ft 456 kts 302°
2026-05-07 13:08 60.86078 -147.66489 37776 ft 452 kts 302°
2026-05-07 13:08 60.87897 -147.71771 37029 ft 451 kts 302°
2026-05-07 13:08 60.89700 -147.77020 36337 ft 449 kts 301°
2026-05-07 13:09 60.91497 -147.82266 35578 ft 449 kts 301°
2026-05-07 13:09 60.93272 -147.87459 34794 ft 450 kts 301°
2026-05-07 13:09 60.95073 -147.92741 33961 ft 450 kts 301°
2026-05-07 13:09 60.96857 -147.97981 32977 ft 447 kts 301°
2026-05-07 13:10 60.98633 -148.03209 32057 ft 441 kts 300°
2026-05-07 13:10 61.00390 -148.08393 31132 ft 442 kts 300°
2026-05-07 13:10 61.02150 -148.13605 30177 ft 443 kts 300°
2026-05-07 13:10 61.03908 -148.18823 28977 ft 443 kts 300°
2026-05-07 13:11 61.05667 -148.24050 27861 ft 443 kts 300°
2026-05-07 13:11 61.07425 -148.29289 26876 ft 441 kts 300°
2026-05-07 13:11 61.09155 -148.34443 26063 ft 435 kts 300°
2026-05-07 13:11 61.10867 -148.39559 25270 ft 429 kts 300°
2026-05-07 13:12 61.12553 -148.44620 24434 ft 426 kts 300°
2026-05-07 13:12 61.14173 -148.49712 23601 ft 420 kts 294°
2026-05-07 13:12 61.15306 -148.55218 22699 ft 411 kts 286°
2026-05-07 13:12 61.16229 -148.60698 21915 ft 406 kts 285°
2026-05-07 13:13 61.17163 -148.66186 21148 ft 402 kts 286°
2026-05-07 13:13 61.18077 -148.71631 20329 ft 398 kts 286°
2026-05-07 13:13 61.18985 -148.77042 19561 ft 395 kts 286°
2026-05-07 13:13 61.19898 -148.82404 18793 ft 393 kts 287°
2026-05-07 13:14 61.20814 -148.87729 17975 ft 391 kts 287°
2026-05-07 13:14 61.21730 -148.93013 17169 ft 387 kts 287°
2026-05-07 13:14 61.22639 -148.98247 16407 ft 384 kts 287°
2026-05-07 13:14 61.23535 -149.03435 15622 ft 382 kts 287°
2026-05-07 13:15 61.24378 -149.08641 14919 ft 378 kts 282°
2026-05-07 13:15 61.24868 -149.13935 14536 ft 369 kts 275°
2026-05-07 13:15 61.25160 -149.19188 14126 ft 365 kts 273°
2026-05-07 13:15 61.25412 -149.24471 13737 ft 370 kts 273°
2026-05-07 13:16 61.25687 -149.29821 13276 ft 373 kts 274°
2026-05-07 13:16 61.25989 -149.35168 12853 ft 371 kts 275°
2026-05-07 13:16 61.26301 -149.40463 12466 ft 367 kts 275°
2026-05-07 13:16 61.26608 -149.45711 12069 ft 365 kts 275°
2026-05-07 13:17 61.26912 -149.50952 11646 ft 364 kts 274°
2026-05-07 13:17 61.27212 -149.56119 11257 ft 355 kts 274°
2026-05-07 13:17 61.27498 -149.61123 10873 ft 344 kts 274°
2026-05-07 13:17 61.27770 -149.65934 10501 ft 335 kts 274°
2026-05-07 13:18 61.28090 -149.70668 10140 ft 328 kts 281°
2026-05-07 13:18 61.29055 -149.74974 9939 ft 319 kts 300°
2026-05-07 13:18 61.30193 -149.78716 9917 ft 303 kts 300°
2026-05-07 13:18 61.31280 -149.82342 9813 ft 288 kts 299°
2026-05-07 13:19 61.32314 -149.85849 9273 ft 284 kts 298°
2026-05-07 13:19 61.33342 -149.89365 8615 ft 284 kts 298°
2026-05-07 13:19 61.34360 -149.92842 8231 ft 277 kts 300°
2026-05-07 13:19 61.35692 -149.95659 7776 ft 276 kts 328°
2026-05-07 13:20 61.37473 -149.97140 7251 ft 276 kts 343°
2026-05-07 13:20 61.39323 -149.98221 6679 ft 277 kts 343°
2026-05-07 13:20 61.41143 -149.99302 6222 ft 267 kts 343°
2026-05-07 13:20 61.42883 -150.00338 5875 ft 252 kts 343°
2026-05-07 13:21 61.44510 -150.01349 5663 ft 235 kts 337°
2026-05-07 13:21 61.45700 -150.03346 5518 ft 210 kts 294°
2026-05-07 13:21 61.45879 -150.06108 5418 ft 188 kts 247°
2026-05-07 13:21 61.45177 -150.08260 5172 ft 178 kts 224°
2026-05-07 13:22 61.44337 -150.10191 4811 ft 180 kts 224°
2026-05-07 13:22 61.43497 -150.12051 4587 ft 171 kts 215°
2026-05-07 13:22 61.42481 -150.13073 4442 ft 157 kts 200°
2026-05-07 13:22 61.41441 -150.13713 4096 ft 157 kts 179°
2026-05-07 13:23 61.40430 -150.12992 3744 ft 158 kts 158°
2026-05-07 13:23 61.39377 -150.12349 3431 ft 158 kts 168°
2026-05-07 13:23 61.38312 -150.11740 3089 ft 159 kts 166°
2026-05-07 13:23 61.37231 -150.11115 2984 ft 161 kts 167°
2026-05-07 13:24 61.36166 -150.10509 2993 ft 155 kts 168°
2026-05-07 13:24 61.35145 -150.09934 2979 ft 150 kts 168°
2026-05-07 13:24 61.34143 -150.09373 2988 ft 150 kts 168°
2026-05-07 13:24 61.33126 -150.08806 3001 ft 152 kts 168°
2026-05-07 13:25 61.32090 -150.08228 2912 ft 156 kts 168°
2026-05-07 13:25 61.31042 -150.07641 2680 ft 155 kts 168°
2026-05-07 13:25 61.30009 -150.07063 2463 ft 152 kts 168°
2026-05-07 13:25 61.28997 -150.06498 2242 ft 150 kts 168°
2026-05-07 13:26 61.27990 -150.05935 2025 ft 151 kts 168°
2026-05-07 13:26 61.26991 -150.05376 1804 ft 144 kts 168°
2026-05-07 13:26 61.26051 -150.04850 1576 ft 139 kts 168°
2026-05-07 13:26 61.25127 -150.04334 1392 ft 138 kts 168°
2026-05-07 13:27 61.24229 -150.03832 1172 ft 130 kts 168°
2026-05-07 13:27 61.23364 -150.03349 977 ft 129 kts 167°
2026-05-07 13:27 61.22484 -150.02865 721 ft 133 kts 167°
2026-05-07 13:27 61.21608 -150.02373 562 ft 130 kts 165°
2026-05-07 13:28 61.20729 -150.01863 389 ft 132 kts 165°
2026-05-07 13:28 61.19840 -150.01379 155 ft 132 kts 165°
2026-05-07 13:28 61.19042 -150.00915 115 ft 95 kts 165°
2026-05-07 13:28 61.18613 -150.00681 117 ft 42 kts 165°
2026-05-07 13:29 61.18352 -150.00532 117 ft 34 kts 163°
2026-05-07 13:29 61.18150 -150.00423 115 ft 27 kts 167°
2026-05-07 13:29 61.17996 -150.00339 117 ft 19 kts 163°
2026-05-07 13:29 61.17892 -150.00239 117 ft 14 kts 135°
2026-05-07 13:30 61.17838 -150.00120 114 ft 8 kts 134°
2026-05-07 13:30 61.17805 -150.00049 125 ft 6 kts 132°
2026-05-07 13:30 61.17777 -149.99981 122 ft 6 kts 130°
2026-05-07 13:30 61.17746 -149.99921 114 ft 6 kts 139°
2026-05-07 13:31 61.17713 -149.99868 116 ft 6 kts 143°
2026-05-07 13:31 61.17680 -149.99815 118 ft 6 kts 137°
2026-05-07 13:31 61.17666 -149.99732 115 ft 7 kts 87°
2026-05-07 13:31 61.17676 -149.99636 119 ft 7 kts 75°
2026-05-07 13:32 61.17692 -149.99525 119 ft 11 kts 74°
2026-05-07 13:32 61.17720 -149.99352 119 ft 13 kts 70°
2026-05-07 13:32 61.17728 -149.99178 119 ft 13 kts 124°
2026-05-07 13:32 61.17665 -149.99064 117 ft 12 kts 104°
2026-05-07 13:33 61.17685 -149.98895 117 ft 12 kts 69°
2026-05-07 13:33 61.17715 -149.98735 118 ft 12 kts 72°
2026-05-07 13:33 61.17724 -149.98572 119 ft 8 kts 91°
2026-05-07 13:33 61.17705 -149.98482 117 ft 3 kts 145°
2026-05-07 13:34 61.17689 -149.98464 118 ft 3 kts 152°
2026-05-07 13:34 61.17685 -149.98460 118 ft 0 kts 152°